Location: Eaton
(41.3139°N, 82.0207°W)
Time: 02:09:34
(UTC+00:00)

Cosmos 1544 Rocket - Pass Details

Date: 17 June 2021
Orbit: 603 x 631 km, 82.5° (Epoch: 02 August)

Event Time Altitude Azimuth Distance (km) Brightness Sun altitude
Rises 02:51:31 0° 357° (N) 2,933 8.0 -15.7°
Reaches altitude 10° 02:53:50 10° 3° (N) 2,019 6.9 -16.0°
Maximum altitude 02:58:11 50° 79° (E) 808 3.9 -16.5°
Enters shadow 02:59:56 31° 136° (SE) 1,096 4.3 -16.7°
